Location: Paddlesworth
(51.1000°N, 1.1333°E)
Time: 23:11:00
(UTC+00:00)

Lacrosse 5 - Pass Details

Date: 11 May 2021
Orbit: 715 x 724 km, 57.0° (Epoch: 15 June)

Event Time Altitude Azimuth Distance (km) Brightness Sun altitude
Exits shadow 23:54:45 16° 114° (ESE) 1,835 3.7 -20.8°
Drops below altitude 10° 23:57:08 10° 86° (E) 2,203 4.4 -20.7°
Sets 00:00:20 0° 65° (ENE) 3,130 5.5 -20.7°
